When you browse on this site, cookies collect data to enhance your experience and personalize the content and advertising you see.
Visit our Privacy Policy to learn more. By continuing to use the site, you agree to this use of cookies and data.
  • In Sweden
  • List of Countries
  • For 7 days
  • Water Temperature
  • Weather Map
  • Weather Widgets
  • user-avatar
    Login

    Hourly Weather Kaba

    Today, 17 October, Thursday

    Time Temperature Precipitation Wind Pressure Humidity
    00:00 +18°C° 0 mm 1 mps 756 mmHg 73%
    01:00 +16°C° 0 mm 1 mps 756 mmHg 73%
    02:00 +16°C° 0 mm 1 mps 756 mmHg 73%
    03:00 +16°C° 0 mm 1 mps 756 mmHg 73%
    04:00 +15°C° 0 mm 0 mps 756 mmHg 73%
    05:00 +15°C° 0 mm 0 mps 756 mmHg 73%
    06:00 +15°C° 0 mm 0 mps 756 mmHg 72%
    07:00 +16°C° 0 mm 1 mps 757 mmHg 69%
    08:00 +19°C° 0 mm 1 mps 757 mmHg 63%
    09:00 +18°C° 0 mm 0 mps 757 mmHg 57%
    10:00 +20°C° 0 mm 0 mps 757 mmHg 51%
    11:00 +23°C° 0 mm 1 mps 756 mmHg 48%
    12:00 +24°C° 0 mm 1 mps 756 mmHg 45%
    13:00 +24°C° 0 mm 1 mps 756 mmHg 42%
    14:00 +24°C° 0 mm 1 mps 756 mmHg 44%
    15:00 +23°C° 0 mm 1 mps 756 mmHg 46%
    16:00 +23°C° 0 mm 1 mps 756 mmHg 48%
    17:00 +22°C° 0 mm 1 mps 756 mmHg 51%
    18:00 +21°C° 0 mm 1 mps 756 mmHg 54%
    19:00 +20°C° 0 mm 1 mps 756 mmHg 57%
    20:00 +19°C° 0 mm 1 mps 756 mmHg 59%
    21:00 +19°C° 0 mm 1 mps 756 mmHg 61%
    22:00 +18°C° 0 mm 1 mps 756 mmHg 64%
    23:00 +18°C° 0 mm 1 mps 756 mmHg 66%

    Tomorrow, 18 October, Friday

    Time Temperature Precipitation Wind Pressure Humidity
    00:00 +18°C° 0 mm 1 mps 756 mmHg 68%
    01:00 +16°C° 0 mm 1 mps 756 mmHg 70%
    02:00 +16°C° 0 mm 1 mps 755 mmHg 72%
    03:00 +15°C° 0 mm 1 mps 755 mmHg 74%
    04:00 +15°C° 0 mm 1 mps 755 mmHg 75%
    05:00 +15°C° 0 mm 1 mps 755 mmHg 75%
    06:00 +15°C° 0 mm 1 mps 755 mmHg 75%
    07:00 +15°C° 0 mm 1 mps 755 mmHg 74%
    08:00 +18°C° 0 mm 1 mps 755 mmHg 67%
    09:00 +20°C° 0 mm 1 mps 755 mmHg 60%
    10:00 +22°C° 0 mm 1 mps 755 mmHg 53%
    11:00 +23°C° 0 mm 1 mps 755 mmHg 49%
    12:00 +24°C° 0 mm 1 mps 754 mmHg 45%
    13:00 +25°C° 0 mm 1 mps 754 mmHg 42%
    14:00 +25°C° 0 mm 1 mps 754 mmHg 43%
    15:00 +24°C° 0 mm 1 mps 754 mmHg 45%
    16:00 +24°C° 0 mm 1 mps 753 mmHg 46%
    17:00 +23°C° 0 mm 1 mps 753 mmHg 49%
    18:00 +21°C° 0 mm 1 mps 753 mmHg 52%
    19:00 +20°C° 0 mm 1 mps 753 mmHg 55%
    20:00 +20°C° 0 mm 1 mps 754 mmHg 57%
    21:00 +19°C° 0 mm 1 mps 754 mmHg 59%
    22:00 +19°C° 0 mm 1 mps 754 mmHg 61%
    23:00 +18°C° 0 mm 1 mps 754 mmHg 63%

    Day after tomorrow, 19 October, Saturday

    Time Temperature Precipitation Wind Pressure Humidity
    00:00 +18°C° 0 mm 1 mps 754 mmHg 64%
    01:00 +16°C° 0 mm 1 mps 754 mmHg 66%
    02:00 +16°C° 0 mm 1 mps 754 mmHg 66%
    03:00 +16°C° 0 mm 1 mps 754 mmHg 67%
    04:00 +15°C° 0 mm 1 mps 755 mmHg 68%
    05:00 +16°C° 0 mm 2 mps 755 mmHg 68%
    06:00 +16°C° 0 mm 2 mps 755 mmHg 69%
    07:00 +16°C° 0 mm 2 mps 755 mmHg 69%
    08:00 +18°C° 0 mm 2 mps 755 mmHg 61%
    09:00 +20°C° 0 mm 2 mps 755 mmHg 54%
    10:00 +21°C° 0 mm 2 mps 755 mmHg 47%
    11:00 +23°C° 0 mm 2 mps 755 mmHg 44%
    12:00 +24°C° 0 mm 2 mps 755 mmHg 41%
    13:00 +25°C° 0 mm 2 mps 754 mmHg 38%
    14:00 +25°C° 0 mm 2 mps 754 mmHg 40%
    15:00 +24°C° 0 mm 2 mps 754 mmHg 43%
    16:00 +24°C° 0 mm 1 mps 753 mmHg 45%
    17:00 +23°C° 0 mm 2 mps 754 mmHg 48%
    18:00 +21°C° 0 mm 2 mps 754 mmHg 50%
    19:00 +20°C° 0 mm 2 mps 754 mmHg 52%
    20:00 +19°C° 0 mm 2 mps 754 mmHg 54%
    21:00 +18°C° 0 mm 2 mps 754 mmHg 55%
    22:00 +18°C° 0 mm 2 mps 755 mmHg 57%
    23:00 +18°C° 0 mm 2 mps 755 mmHg 59%

    20 October, Sunday

    Time Temperature Precipitation Wind Pressure Humidity
    00:00 +17°C° 0 mm 2 mps 755 mmHg 60%
    01:00 +17°C° 0 mm 3 mps 755 mmHg 62%
    02:00 +16°C° 0 mm 2 mps 755 mmHg 63%
    03:00 +16°C° 0 mm 2 mps 755 mmHg 65%
    04:00 +16°C° 0 mm 2 mps 755 mmHg 66%
    05:00 +16°C° 0 mm 2 mps 755 mmHg 67%
    06:00 +16°C° 0 mm 2 mps 755 mmHg 67%
    07:00 +16°C° 0 mm 2 mps 755 mmHg 67%
    08:00 +18°C° 0 mm 2 mps 756 mmHg 59%
    09:00 +20°C° 0 mm 3 mps 756 mmHg 51%
    10:00 +22°C° 0 mm 3 mps 756 mmHg 44%
    11:00 +24°C° 0 mm 3 mps 756 mmHg 41%
    12:00 +25°C° 0 mm 3 mps 756 mmHg 39%
    13:00 +26°C° 0 mm 3 mps 755 mmHg 37%
    14:00 +25°C° 0 mm 3 mps 755 mmHg 39%
    15:00 +25°C° 0 mm 3 mps 755 mmHg 41%
    16:00 +24°C° 0 mm 2 mps 755 mmHg 44%
    17:00 +23°C° 0 mm 2 mps 755 mmHg 47%
    18:00 +21°C° 0 mm 2 mps 755 mmHg 49%
    19:00 +20°C° 0 mm 2 mps 755 mmHg 52%
    20:00 +19°C° 0 mm 3 mps 756 mmHg 54%
    21:00 +19°C° 0 mm 3 mps 756 mmHg 55%
    22:00 +18°C° 0 mm 3 mps 756 mmHg 56%
    23:00 +18°C° 0 mm 3 mps 756 mmHg 58%

    21 October, Monday

    Time Temperature Precipitation Wind Pressure Humidity
    00:00 +17°C° 0 mm 3 mps 756 mmHg 59%
    01:00 +17°C° 0 mm 3 mps 755 mmHg 60%
    02:00 +17°C° 0 mm 3 mps 755 mmHg 61%
    03:00 +16°C° 0 mm 3 mps 755 mmHg 63%
    04:00 +16°C° 0 mm 3 mps 755 mmHg 64%
    05:00 +16°C° 0 mm 3 mps 756 mmHg 64%
    06:00 +16°C° 0 mm 3 mps 756 mmHg 64%
    07:00 +16°C° 0 mm 3 mps 756 mmHg 64%
    08:00 +18°C° 0 mm 4 mps 756 mmHg 57%
    09:00 +20°C° 0 mm 5 mps 756 mmHg 50%
    10:00 +23°C° 0 mm 5 mps 756 mmHg 43%
    11:00 +25°C° 0 mm 5 mps 756 mmHg 39%
    12:00 +26°C° 0 mm 5 mps 756 mmHg 35%
    13:00 +27°C° 0 mm 5 mps 756 mmHg 32%
    14:00 +27°C° 0 mm 4 mps 755 mmHg 33%
    15:00 +26°C° 0 mm 4 mps 755 mmHg 35%
    16:00 +25°C° 0 mm 3 mps 755 mmHg 37%
    17:00 +24°C° 0 mm 3 mps 755 mmHg 39%
    18:00 +22°C° 0 mm 3 mps 756 mmHg 41%
    19:00 +21°C° 0 mm 3 mps 756 mmHg 43%
    20:00 +20°C° 0 mm 3 mps 756 mmHg 44%
    21:00 +20°C° 0 mm 3 mps 756 mmHg 46%
    22:00 +19°C° 0 mm 3 mps 756 mmHg 47%
    23:00 +19°C° 0 mm 3 mps 756 mmHg 51%

    22 October, Tuesday

    Time Temperature Precipitation Wind Pressure Humidity
    00:00 +18°C° 0 mm 2 mps 756 mmHg 56%
    01:00 +18°C° 0 mm 2 mps 757 mmHg 60%
    02:00 +18°C° 0 mm 2 mps 757 mmHg 64%
    03:00 +17°C° 0 mm 2 mps 757 mmHg 68%
    04:00 +17°C° 0 mm 2 mps 757 mmHg 72%
    05:00 +17°C° 0 mm 2 mps 757 mmHg 73%
    06:00 +18°C° 0 mm 1 mps 757 mmHg 74%
    07:00 +18°C° 0 mm 1 mps 758 mmHg 75%
    08:00 +19°C° 0 mm 1 mps 758 mmHg 70%
    09:00 +21°C° 0 mm 1 mps 758 mmHg 65%
    10:00 +23°C° 0 mm 1 mps 758 mmHg 60%
    11:00 +23°C° 0 mm 2 mps 758 mmHg 57%
    12:00 +24°C° 0 mm 2 mps 758 mmHg 54%
    13:00 +25°C° 0 mm 2 mps 758 mmHg 51%
    14:00 +24°C° 0 mm 2 mps 758 mmHg 53%
    15:00 +24°C° 0 mm 3 mps 758 mmHg 55%
    16:00 +22°C° 0 mm 3 mps 758 mmHg 57%
    17:00 +21°C° 0 mm 3 mps 758 mmHg 61%
    18:00 +19°C° 0 mm 3 mps 758 mmHg 64%
    19:00 +18°C° 0 mm 4 mps 758 mmHg 67%
    20:00 +17°C° 0 mm 4 mps 758 mmHg 69%
    21:00 +17°C° 0 mm 3 mps 758 mmHg 71%
    22:00 +16°C° 0 mm 3 mps 758 mmHg 72%
    23:00 +14°C° 0 mm 3 mps 758 mmHg 73%
    Show more